Milwaukee Condo Man

David Price | 414-224-7200

David@MilwaukeeRealtyInc.com
  1. Home
  2. All Milwaukee Condos
  3. About Milwaukee Realty Inc.
  4. Contact David Price


Condos at Blatz

270 E Highland Ave, Milwaukee, WI.





Directions: Northwest corner of Broadway & Highland. Enter on west side of building off Market Street. Located half block east of Water Street. Near MSOE.

Milwaukee Condos @ Blatz

Enjoy your private 2-story gym, 24 hr concierge/security, an amazing roof terrace, pool area w/sauna & whirlpool, and common space to have private parties & gatherings w/friends & family. Terrific location, too! Close to many entertainment & sporting venues, restaurants & easy access to freeway. Enjoy Farmers Market in summer, ice skating at Red Arrow Park + Holiday activities. Brady St. to the north, 3rd Ward to the south. Live in the center of Milwaukees vibrant Downtown (but with less traffic!). Live at The Blatz.



Milwaukee Condos at Blatz.Blatz was built in 1901 and holds 169 condos. Features include: Atrium,Clubhouse,Elevator,Exercise Room,Indoor Pool,Laundry Facilities,Near Public Transit,Sauna,Security,Whirlpool. The Heating and Cooling system is controlled by Boiler,Central Air,Heat Pump. Search all Milwaukee condos for sale at Blatz below:

Click the column titles to sort.
Unit# Bedroom# BathsList PriceSq ft.Price / Sq ft.Link
1026 23$299,9002,190$137View Listing
241 23$225,0001,095$205View Listing
1031 12$155,0001,154$134View Listing
With Offer
512 11$142,000754$188View Listing
415 11$142,000907$157View Listing
With Offer
1032 11$127,900762$168View Listing
With Offer


Executive Summary preview for Blatz (NON-OFFICIAL).


Condos sold at blatz in the past 18 months:


Click the column titles to sort.
Sold DateUnitSOLD Price# Beds# BathsSq ft.Price / Sq ft.
2016-06-24 1242 $267,000 2 2 1,328 sqft $201 per sqft
2016-05-31 831 $206,900 2 2 1,165 sqft $178 per sqft
2016-05-13 643 $170,000 2 2 980 sqft $173 per sqft
2016-05-09 631 $159,090 1 2 956 sqft $166 per sqft
2016-04-29 937 $233,000 2 2 1,117 sqft $209 per sqft
2016-04-20 422 $137,500 1 2 895 sqft $154 per sqft
2016-04-20 446 $170,000 2 2 980 sqft $173 per sqft
2016-04-15 616 $250,000 2 2 1,770 sqft $141 per sqft
2016-04-08 113 $160,000 2 2 1,188 sqft $135 per sqft
2016-02-12 1136 $204,700 2 2 1,158 sqft $177 per sqft
2015-12-29 842 $170,000 2 2 980 sqft $173 per sqft
2015-09-04 1036 $177,000 2 2 1,158 sqft $153 per sqft
2015-09-04 841 $194,500 2 2 1,095 sqft $178 per sqft
2015-08-24 423 $218,000 2 2 1,260 sqft $173 per sqft
2015-08-10 643 $165,000 2 2 980 sqft $168 per sqft
2015-07-30 1042 $179,000 2 2 980 sqft $183 per sqft
2015-07-29 435 $142,419 2 2 1,154 sqft $123 per sqft
2015-07-14 841 $175,000 2 2 1,095 sqft $160 per sqft
2015-06-30 232 $117,000 1 1 739 sqft $158 per sqft
2015-06-29 932 $110,000 1 1 739 sqft $149 per sqft
2015-06-24 215 $120,000 1 1 907 sqft $132 per sqft
2015-06-24 514 $160,000 1 1 900 sqft $178 per sqft
2015-05-28 821 $236,000 2 2 1,260 sqft $187 per sqft
2015-05-22 421 $245,000 2 2 1,260 sqft $194 per sqft
2015-05-19 648 $179,000 2 2 980 sqft $183 per sqft
2015-05-13 915 $166,400 1 1 907 sqft $183 per sqft
2015-04-29 811 $281,000 3 2 1,960 sqft $143 per sqft
2015-04-27 836 $203,000 2 2 1,117 sqft $182 per sqft
2015-04-24 223 $187,000 2 2 1,260 sqft $148 per sqft
2015-04-17 644 $157,500 2 2 980 sqft $161 per sqft
2015-04-16 1224 $570,000 3 3 2,488 sqft $229 per sqft
2015-01-05 234 $194,500 2 2 1,069 sqft $182 per sqft
2015-01-02 837 $197,500 2 2 1,117 sqft $177 per sqft
2014-11-05 1246 $219,500 2 2 1,207 sqft $182 per sqft
2014-10-31 247 $170,000 2 2 980 sqft $173 per sqft
2014-09-29 632 $130,000 1 1 739 sqft $176 per sqft
2014-09-15 637 $226,750 2 2 1,294 sqft $175 per sqft
2014-09-12 622 $120,000 1 2 895 sqft $134 per sqft
2014-09-12 111 $180,000 1 1 1,278 sqft $141 per sqft
2014-07-25 641 $182,500 2 2 1,095 sqft $167 per sqft
2014-07-18 112 $153,000 1 1 925 sqft $165 per sqft
2014-07-18 843 $171,000 2 2 980 sqft $174 per sqft
2014-07-15 636 $213,000 2 2 1,117 sqft $191 per sqft
2014-06-12 442 $160,000 2 2 980 sqft $163 per sqft
2014-05-28 224 $187,500 2 2 1,260 sqft $149 per sqft
2014-02-27 934 $170,000 2 2 1,069 sqft $159 per sqft
2013-11-29 516 $275,000 2 2 1,770 sqft $155 per sqft
2013-10-10 446 $135,000 2 2 980 sqft $138 per sqft
2013-09-27 235 $185,000 2 2 1,154 sqft $160 per sqft
2013-08-14 114 $168,000 2 2 1,262 sqft $133 per sqft
2013-08-09 443 $160,000 2 2 980 sqft $163 per sqft

Give David Price a call to see how these sales relate to current listings.




Stay Updated on Milwaukee Condos
Join the MLS auto-email list


Enter Your E-mail Address




How often do you want updates?

Daily Weekly



Search All Milwaukee Condos


Back to Milwaukee Condo Man

Milwaukee Realty Inc

© 2016, Milwaukee Realty Inc. | 1550 N Prospect Ave, Milwaukee, Wisconsin. 53202 | Telephone: (414) 224-7200